Regional Weather Roundup
Issued by NWS Jackson, KY

Home | Current Version | Previous Version | Graphics & Text | Print | Product List | Glossary On
Versions: 1 2 3 4 5 6 7 8 9 10 11 12 13 14 15 16 17 18 19 20 21 22 23 24 25 26 27
000
ASUS43 KJKL 020910
RWRJKL

EAST KENTUCKY HOURLY WEATHER ROUNDUP
NATIONAL WEATHER SERVICE JACKSON KY
400 AM EST FRI DEC 02 2016

NOTE: "FAIR" INDICATES FEW OR NO CLOUDS BELOW 12,000 FEET WITH
NO SIGNIFICANT WEATHER AND/OR OBSTRUCTIONS TO VISIBILITY.

* THESE REPORTS ARE NOT UNDER NWS QUALITY CONTROL AND MAY NOT
  REPORT WEATHER SUCH AS PRECIPITATION AND FOG.

KYZ079-080-083-085-087-088-110-112-115-119-120-021000
...EASTERN KENTUCKY...

CITY           SKY/WX    TMP DP  RH WIND       PRES   REMARKS
JACKSON        CLEAR     33  26  75 SW5       30.11R WCI  29
LONDON         CLEAR     28  26  92 CALM      30.14R
SOMERSET*      CLEAR     28  28 100 CALM      30.16S
MONTICELLO*    CLEAR     22  19  89 NE8       30.18S WCI  12
WILLIAMSBURG*  SUNNY     28  28 100 CALM      30.15S
MIDDLESBORO*   CLEAR     28  28  98 CALM      30.16R
HARLAN APT*    CLOUDY    30  30 100 CALM      30.12S VSB<1/4
PIKE CO APT*     N/A     34  29  82 CALM      30.10R
BIG SANDY APT* SUNNY     34  29  84 SW3       30.10S
MOREHEAD APT*  MOSUNNY   32  27  80 CALM      30.13R
ASHLAND*       PTCLDY    30  27  86 CALM      30.09S
$$

KYZ035-036-041-042-044-050-067-078-099-021000
...CENTRAL KENTUCKY...

CITY           SKY/WX    TMP DP  RH WIND       PRES   REMARKS
MT STERLING*   CLEAR     28  27  93 W5        30.14R WCI  23
FLEMING/MASON* MOCLDY    29  26  88 SW7       30.12S WCI  22
DANVILLE*      CLEAR     27  27 100 CALM      30.15S
LEXINGTON      CLEAR     28  24  85 SW6       30.13R WCI  22
FRANKFORT      CLEAR     29  25  85 SW5       30.13R WCI  24
LOUISVILLE     PTCLDY    35  28  75 SW6       30.15R WCI  30
LEBANON*         N/A     32  27  80 CALM      30.15S
GLASGOW*       CLEAR     29  29 100 CALM      30.16S
BOWLING GREEN  CLEAR     30  27  88 CALM      30.17S
$$

KYZ091>093-OHZ055-061-077-WVZ005-015-034-035-042-021000
...SOUTHERN OHIO/WEST VIRGINIA...

CITY           SKY/WX    TMP DP  RH WIND       PRES   REMARKS
COVINGTON      CLOUDY    36  30  79 W10       30.09S WCI  28
COLUMBUS       CLOUDY    37  31  78 W9        30.05S WCI  30
DAYTON         CLOUDY    36  29  75 W8        30.07R WCI  30
WILMINGTON     CLOUDY    35  29  78 W10       30.06S WCI  27
HUNTINGTON     CLEAR     32  28  85 SW6       30.09R WCI  26
CHARLESTON     CLEAR     38  29  70 W9        30.08R WCI  31
PINEVILLE*       N/A     29  26  91 MISG      30.12S
BECKLEY        PTCLDY    33  26  75 W5        30.03S WCI  29
BLUEFIELD      CLEAR     30  25  81 W7        30.03F WCI  23
LOGAN CO APT*    N/A     34  28  80 CALM      30.07S
$$

VAZ002-007-008-TNZ017-027-036-066-071-021000
...SOUTHWEST VIRGINIA/EAST TENNESSEE...

CITY           SKY/WX    TMP DP  RH WIND       PRES   REMARKS
WISE*          CLEAR     32  27  80 W5        30.08R WCI  27
JONESVILLE*      N/A     27  27 100 CALM      30.15S
ABINGDON*      CLEAR     32  31  95 W3        30.08S
BRISTOL        PTCLDY    29  26  89 CALM      30.11S
MORRISTOWN*    SUNNY     30  28  93 CALM      30.12S
SEVIERVILLE*   SUNNY     27  27 100 CALM      30.14S
KNOXVILLE      CLEAR     34  28  79 CALM      30.14S
OAK RIDGE      CLEAR     32  28  85 CALM      30.17R
CROSSVILLE     CLEAR     30  25  81 W5        30.15R WCI  25
NASHVILLE      CLEAR     31  27  85 S6        30.19R WCI  25
$$

...KEY TO REMARKS...
VSB - VISIBILITY IN MILES
WCI - WIND CHILL INDEX
HX  - HEAT INDEX

$$




USA.gov is the U.S. government's official web portal to all federal, state and local government web resources and services.